• In Netherlands
  • List of Countries
  • For 7 days
  • Water Temperature
  • Satellite Maps
  • Weather Map
  • Weather Widgets
  • user-avatar
    Login

    Hourly Weather Trinidad

    Today, 21 January, Saturday

    Time Temperature Precipitation Wind Pressure Humidity
    00:00 +26°C° 0.5 mm 1 mps 743 mmHg 90%
    01:00 +26°C° 0.5 mm 1 mps 743 mmHg 92%
    02:00 +25°C° 0.5 mm 1 mps 743 mmHg 95%
    03:00 +25°C° 0.4 mm 1 mps 743 mmHg 95%
    04:00 +25°C° 0.4 mm 1 mps 743 mmHg 95%
    05:00 +25°C° 0.4 mm 1 mps 743 mmHg 95%
    06:00 +26°C° 0.4 mm 1 mps 744 mmHg 94%
    07:00 +26°C° 0.4 mm 1 mps 744 mmHg 93%
    08:00 +26°C° 0.4 mm 1 mps 745 mmHg 93%
    09:00 +27°C° 0.6 mm 2 mps 745 mmHg 88%
    10:00 +28°C° 0.6 mm 2 mps 745 mmHg 83%
    11:00 +30°C° 0.6 mm 3 mps 745 mmHg 78%
    12:00 +30°C° 0.8 mm 3 mps 745 mmHg 76%
    13:00 +30°C° 0.8 mm 4 mps 744 mmHg 74%
    14:00 +30°C° 0.8 mm 5 mps 744 mmHg 73%
    15:00 +30°C° 0.1 mm 5 mps 743 mmHg 73%
    16:00 +29°C° 0.1 mm 5 mps 743 mmHg 73%
    17:00 +29°C° 0.1 mm 5 mps 742 mmHg 73%
    18:00 +28°C° 0.5 mm 4 mps 742 mmHg 77%
    19:00 +27°C° 0.5 mm 3 mps 743 mmHg 81%
    20:00 +26°C° 0.5 mm 3 mps 743 mmHg 85%
    21:00 +26°C° 0.8 mm 2 mps 744 mmHg 87%
    22:00 +26°C° 0.8 mm 2 mps 744 mmHg 89%
    23:00 +25°C° 0.8 mm 1 mps 745 mmHg 91%

    Tomorrow, 22 January, Sunday

    Time Temperature Precipitation Wind Pressure Humidity
    00:00 +25°C° 0.1 mm 1 mps 744 mmHg 91%
    01:00 +25°C° 0.1 mm 1 mps 744 mmHg 91%
    02:00 +25°C° 0.1 mm 1 mps 744 mmHg 92%
    03:00 +25°C° 0 mm 1 mps 744 mmHg 92%
    04:00 +25°C° 0 mm 1 mps 744 mmHg 93%
    05:00 +25°C° 0 mm 1 mps 743 mmHg 93%
    06:00 +23°C° 0 mm 0 mps 744 mmHg 91%
    07:00 +24°C° 0 mm 0 mps 745 mmHg 89%
    08:00 +24°C° 0 mm 0 mps 745 mmHg 88%
    09:00 +28°C° 0 mm 1 mps 746 mmHg 82%
    10:00 +29°C° 0 mm 1 mps 746 mmHg 76%
    11:00 +30°C° 0 mm 1 mps 746 mmHg 70%
    12:00 +31°C° 0 mm 2 mps 745 mmHg 66%
    13:00 +31°C° 0 mm 2 mps 744 mmHg 62%
    14:00 +33°C° 0 mm 3 mps 743 mmHg 58%
    15:00 +33°C° 0 mm 3 mps 743 mmHg 56%
    16:00 +34°C° 0 mm 3 mps 742 mmHg 55%
    17:00 +34°C° 0 mm 4 mps 741 mmHg 53%
    18:00 +31°C° 0 mm 3 mps 742 mmHg 61%
    19:00 +29°C° 0 mm 2 mps 742 mmHg 69%
    20:00 +27°C° 0 mm 2 mps 743 mmHg 77%
    21:00 +26°C° 0 mm 2 mps 743 mmHg 82%
    22:00 +26°C° 0 mm 1 mps 744 mmHg 86%
    23:00 +25°C° 0 mm 1 mps 744 mmHg 91%

    Day after tomorrow, 23 January, Monday

    Time Temperature Precipitation Wind Pressure Humidity
    00:00 +25°C° 0 mm 1 mps 744 mmHg 92%
    01:00 +24°C° 0 mm 1 mps 744 mmHg 94%
    02:00 +24°C° 0 mm 1 mps 743 mmHg 95%
    03:00 +24°C° 0 mm 1 mps 743 mmHg 95%
    04:00 +24°C° 0 mm 1 mps 743 mmHg 96%
    05:00 +24°C° 0 mm 1 mps 743 mmHg 96%
    06:00 +25°C° 0 mm 2 mps 743 mmHg 91%
    07:00 +26°C° 0 mm 2 mps 744 mmHg 86%
    08:00 +27°C° 0 mm 2 mps 744 mmHg 80%
    09:00 +29°C° 0 mm 2 mps 744 mmHg 72%
    10:00 +31°C° 0 mm 3 mps 744 mmHg 64%
    11:00 +34°C° 0 mm 3 mps 745 mmHg 55%
    12:00 +35°C° 0.1 mm 3 mps 744 mmHg 53%
    13:00 +36°C° 0.1 mm 4 mps 743 mmHg 50%
    14:00 +37°C° 0.1 mm 4 mps 742 mmHg 48%
    15:00 +36°C° 0 mm 4 mps 741 mmHg 49%
    16:00 +36°C° 0 mm 4 mps 741 mmHg 51%
    17:00 +35°C° 0 mm 4 mps 740 mmHg 52%
    18:00 +34°C° 0 mm 3 mps 741 mmHg 59%
    19:00 +31°C° 0 mm 3 mps 741 mmHg 66%
    20:00 +29°C° 0 mm 2 mps 742 mmHg 73%
    21:00 +28°C° 0 mm 2 mps 743 mmHg 75%
    22:00 +28°C° 0 mm 2 mps 743 mmHg 78%
    23:00 +27°C° 0 mm 2 mps 744 mmHg 81%

    24 January, Tuesday

    Time Temperature Precipitation Wind Pressure Humidity
    00:00 +27°C° 0.1 mm 2 mps 743 mmHg 83%
    01:00 +26°C° 0.1 mm 2 mps 743 mmHg 86%
    02:00 +26°C° 0.1 mm 2 mps 742 mmHg 89%
    03:00 +26°C° 0 mm 2 mps 743 mmHg 90%
    04:00 +26°C° 0 mm 1 mps 743 mmHg 91%
    05:00 +25°C° 0 mm 1 mps 743 mmHg 92%
    06:00 +26°C° 0 mm 2 mps 743 mmHg 89%
    07:00 +27°C° 0 mm 2 mps 744 mmHg 85%
    08:00 +27°C° 0 mm 2 mps 745 mmHg 82%
    09:00 +29°C° 0.1 mm 3 mps 745 mmHg 74%
    10:00 +31°C° 0.1 mm 3 mps 745 mmHg 66%
    11:00 +33°C° 0.1 mm 4 mps 745 mmHg 59%
    12:00 +33°C° 0.3 mm 3 mps 744 mmHg 59%
    13:00 +33°C° 0.3 mm 3 mps 743 mmHg 59%
    14:00 +33°C° 0.3 mm 3 mps 743 mmHg 59%
    15:00 +33°C° 0.1 mm 3 mps 742 mmHg 59%
    16:00 +33°C° 0.1 mm 3 mps 742 mmHg 59%
    17:00 +32°C° 0.1 mm 2 mps 741 mmHg 59%
    18:00 +31°C° 0 mm 2 mps 742 mmHg 65%
    19:00 +30°C° 0 mm 2 mps 742 mmHg 72%
    20:00 +28°C° 0 mm 1 mps 743 mmHg 78%
    21:00 +28°C° 0.6 mm 1 mps 743 mmHg 82%
    22:00 +27°C° 0.6 mm 1 mps 744 mmHg 86%
    23:00 +26°C° 0.6 mm 1 mps 744 mmHg 90%

    25 January, Wednesday

    Time Temperature Precipitation Wind Pressure Humidity
    00:00 +26°C° 0.7 mm 1 mps 744 mmHg 91%
    01:00 +26°C° 0.7 mm 1 mps 744 mmHg 92%
    02:00 +25°C° 0.7 mm 1 mps 743 mmHg 94%
    03:00 +25°C° 0.1 mm 1 mps 744 mmHg 94%
    04:00 +25°C° 0.1 mm 1 mps 744 mmHg 94%
    05:00 +25°C° 0.1 mm 1 mps 744 mmHg 95%
    06:00 +26°C° 0 mm 1 mps 745 mmHg 91%
    07:00 +27°C° 0 mm 1 mps 746 mmHg 87%
    08:00 +28°C° 0 mm 1 mps 746 mmHg 83%
    09:00 +30°C° 0 mm 1 mps 746 mmHg 72%
    10:00 +33°C° 0 mm 1 mps 746 mmHg 61%
    11:00 +35°C° 0 mm 1 mps 746 mmHg 49%
    12:00 +36°C° 0.3 mm 2 mps 745 mmHg 49%
    13:00 +36°C° 0.3 mm 2 mps 745 mmHg 50%
    14:00 +37°C° 0.3 mm 2 mps 744 mmHg 50%
    15:00 +35°C° 0.7 mm 1 mps 743 mmHg 51%
    16:00 +35°C° 0.7 mm 1 mps 743 mmHg 52%
    17:00 +33°C° 0.7 mm 0 mps 742 mmHg 53%
    18:00 +33°C° 0 mm 1 mps 743 mmHg 59%
    19:00 +31°C° 0 mm 1 mps 743 mmHg 65%
    20:00 +29°C° 0 mm 1 mps 744 mmHg 71%
    21:00 +28°C° 1.1 mm 1 mps 744 mmHg 77%
    22:00 +27°C° 1.1 mm 2 mps 745 mmHg 83%
    23:00 +27°C° 1.1 mm 2 mps 745 mmHg 89%

    26 January, Thursday

    Time Temperature Precipitation Wind Pressure Humidity
    00:00 +26°C° 3.4 mm 1 mps 745 mmHg 91%
    01:00 +26°C° 3.4 mm 1 mps 745 mmHg 92%
    02:00 +26°C° 3.4 mm 1 mps 744 mmHg 93%
    03:00 +26°C° 0.3 mm 1 mps 745 mmHg 94%
    04:00 +26°C° 0.3 mm 1 mps 745 mmHg 94%
    05:00 +25°C° 0.3 mm 2 mps 745 mmHg 94%
    06:00 +26°C° 0.5 mm 2 mps 745 mmHg 93%
    07:00 +26°C° 0.5 mm 2 mps 746 mmHg 92%
    08:00 +26°C° 0.5 mm 2 mps 747 mmHg 91%
    09:00 +28°C° 0.1 mm 2 mps 747 mmHg 82%
    10:00 +30°C° 0.1 mm 2 mps 747 mmHg 72%
    11:00 +31°C° 0.1 mm 3 mps 747 mmHg 63%
    12:00 +33°C° 0.2 mm 3 mps 746 mmHg 59%
    13:00 +35°C° 0.2 mm 3 mps 745 mmHg 56%
    14:00 +36°C° 0.2 mm 3 mps 745 mmHg 52%
    15:00 +35°C° 0.9 mm 2 mps 744 mmHg 55%
    16:00 +35°C° 0.9 mm 2 mps 743 mmHg 59%
    17:00 +34°C° 0.9 mm 1 mps 743 mmHg 62%
    18:00 +32°C° 0 mm 1 mps 743 mmHg 67%
    19:00 +30°C° 0 mm 1 mps 743 mmHg 71%
    20:00 +28°C° 0 mm 1 mps 744 mmHg 76%
    21:00 +28°C° 0 mm 1 mps 744 mmHg 77%
    22:00 +27°C° 0 mm 1 mps 744 mmHg 78%
    23:00 +27°C° 0 mm 1 mps 744 mmHg 79%
    Show more